EWG8A EDDH-EDDS

Flight info

Callsign EWG8A
Flight time 0h 54m
Altitude 34000
Route AMLUH2G AMLUH M852 DENIX DCT OBATU DCT BERXO DCT SILWE DCT OSBIT P605 TOSTU T726 LBU
Aircraft A321/M-SDE2E3FGIJ1LORWXY/HB1

Departure

Time 2026-05-06 16:10
Airport Hamburg Helmut Schmidt Airport (EDDH)

Arrival

Time 2026-05-06 17:04
Airport Stuttgart Airport (EDDS)
Time Latitude Longitude Altitude Speed Heading
2026-05-06 15:38 53.63372 10.00336 49 ft 0 kts 86°
2026-05-06 16:00 53.63371 10.00307 45 ft 4 kts 86°
2026-05-06 16:01 53.63370 10.00271 43 ft 4 kts 99°
2026-05-06 16:01 53.63381 10.00235 46 ft 4 kts 149°
2026-05-06 16:01 53.63396 10.00225 45 ft 0 kts 175°
2026-05-06 16:04 53.63389 10.00226 48 ft 2 kts 175°
2026-05-06 16:05 53.63355 10.00230 45 ft 6 kts 176°
2026-05-06 16:05 53.63307 10.00236 48 ft 8 kts 176°
2026-05-06 16:05 53.63251 10.00243 48 ft 9 kts 176°
2026-05-06 16:05 53.63184 10.00251 48 ft 10 kts 176°
2026-05-06 16:06 53.63108 10.00260 48 ft 12 kts 176°
2026-05-06 16:06 53.63040 10.00232 48 ft 11 kts 211°
2026-05-06 16:06 53.62973 10.00160 46 ft 12 kts 212°
2026-05-06 16:06 53.62899 10.00081 47 ft 13 kts 213°
2026-05-06 16:07 53.62854 9.99990 48 ft 6 kts 243°
2026-05-06 16:07 53.62846 9.99962 48 ft 0 kts 243°
2026-05-06 16:07 53.62844 9.99956 46 ft 2 kts 243°
2026-05-06 16:07 53.62828 9.99902 47 ft 7 kts 243°
2026-05-06 16:08 53.62812 9.99811 45 ft 8 kts 284°
2026-05-06 16:08 53.62843 9.99766 45 ft 0 kts 333°
2026-05-06 16:09 53.62874 9.99740 45 ft 21 kts 333°
2026-05-06 16:10 53.63248 9.99415 47 ft 97 kts 333°
2026-05-06 16:10 53.64049 9.98727 48 ft 157 kts 333°
2026-05-06 16:10 53.65080 9.97817 533 ft 169 kts 336°
2026-05-06 16:10 53.66128 9.96923 1331 ft 169 kts 338°
2026-05-06 16:11 53.67224 9.95992 1747 ft 187 kts 340°
2026-05-06 16:11 53.68461 9.94999 2063 ft 204 kts 346°
2026-05-06 16:11 53.69856 9.94677 2593 ft 204 kts
2026-05-06 16:11 53.71275 9.94696 3279 ft 204 kts
2026-05-06 16:12 53.72637 9.95243 3904 ft 202 kts 32°
2026-05-06 16:12 53.73642 9.96880 4498 ft 205 kts 60°
2026-05-06 16:12 53.74041 9.99193 5111 ft 209 kts 81°
2026-05-06 16:12 53.74199 10.01658 5733 ft 214 kts 87°
2026-05-06 16:13 53.73967 10.04174 6290 ft 223 kts 107°
2026-05-06 16:13 53.73229 10.06631 6519 ft 246 kts 118°
2026-05-06 16:13 53.72347 10.09232 6816 ft 265 kts 117°
2026-05-06 16:13 53.71421 10.11979 7462 ft 272 kts 117°
2026-05-06 16:14 53.70496 10.14727 8232 ft 274 kts 117°
2026-05-06 16:14 53.69501 10.17542 8981 ft 279 kts 125°
2026-05-06 16:14 53.68152 10.19863 9719 ft 284 kts 142°
2026-05-06 16:14 53.66375 10.21514 10219 ft 298 kts 159°
2026-05-06 16:15 53.64339 10.22508 10366 ft 320 kts 164°
2026-05-06 16:15 53.62129 10.23507 10597 ft 335 kts 163°
2026-05-06 16:15 53.59858 10.24530 11185 ft 339 kts 163°
2026-05-06 16:15 53.57570 10.25561 11878 ft 342 kts 164°
2026-05-06 16:16 53.55266 10.26601 12536 ft 344 kts 164°
2026-05-06 16:16 53.52952 10.27654 13219 ft 344 kts 164°
2026-05-06 16:16 53.50637 10.28713 13859 ft 346 kts 165°
2026-05-06 16:16 53.48304 10.29779 14377 ft 349 kts 165°
2026-05-06 16:17 53.45952 10.30851 14934 ft 351 kts 165°
2026-05-06 16:17 53.43586 10.31928 15484 ft 354 kts 166°
2026-05-06 16:17 53.41198 10.33014 16069 ft 358 kts 166°
2026-05-06 16:17 53.38785 10.34103 16633 ft 362 kts 167°
2026-05-06 16:18 53.36344 10.35199 17268 ft 365 kts 167°
2026-05-06 16:18 53.33883 10.36303 17881 ft 368 kts 167°
2026-05-06 16:18 53.31401 10.37416 18420 ft 371 kts 167°
2026-05-06 16:18 53.28903 10.38538 18871 ft 373 kts 167°
2026-05-06 16:19 53.26383 10.39664 19267 ft 377 kts 167°
2026-05-06 16:19 53.23839 10.40804 19668 ft 380 kts 167°
2026-05-06 16:19 53.21276 10.41953 20097 ft 382 kts 167°
2026-05-06 16:19 53.18702 10.43100 20521 ft 385 kts 167°
2026-05-06 16:20 53.16106 10.44255 20952 ft 387 kts 166°
2026-05-06 16:20 53.13472 10.45244 21353 ft 389 kts 173°
2026-05-06 16:20 53.10772 10.45501 21778 ft 390 kts 183°
2026-05-06 16:20 53.08059 10.45233 22192 ft 392 kts 184°
2026-05-06 16:21 53.05329 10.44950 22605 ft 394 kts 184°
2026-05-06 16:21 53.02580 10.44668 23038 ft 397 kts 184°
2026-05-06 16:21 52.99809 10.44385 23440 ft 400 kts 184°
2026-05-06 16:21 52.97024 10.44104 23801 ft 402 kts 184°
2026-05-06 16:22 52.94226 10.43828 24196 ft 403 kts 184°
2026-05-06 16:22 52.91457 10.43559 24552 ft 405 kts 184°
2026-05-06 16:22 52.88633 10.43285 24891 ft 407 kts 184°
2026-05-06 16:22 52.85791 10.43008 25205 ft 410 kts 184°
2026-05-06 16:23 52.82934 10.42728 25591 ft 412 kts 183°
2026-05-06 16:23 52.80063 10.42446 25980 ft 414 kts 183°
2026-05-06 16:23 52.77180 10.42163 26360 ft 416 kts 184°
2026-05-06 16:23 52.74285 10.41879 26673 ft 419 kts 184°
2026-05-06 16:24 52.71368 10.41575 27005 ft 421 kts 186°
2026-05-06 16:24 52.68472 10.40758 27331 ft 423 kts 193°
2026-05-06 16:24 52.65596 10.39678 27684 ft 425 kts 193°
2026-05-06 16:24 52.62714 10.38602 28025 ft 426 kts 193°
2026-05-06 16:25 52.59811 10.37528 28348 ft 429 kts 193°
2026-05-06 16:25 52.56893 10.36454 28650 ft 431 kts 193°
2026-05-06 16:25 52.53961 10.35376 28989 ft 432 kts 194°
2026-05-06 16:25 52.51025 10.34293 29384 ft 433 kts 194°
2026-05-06 16:26 52.48082 10.33210 29718 ft 434 kts 194°
2026-05-06 16:26 52.45134 10.32124 30002 ft 436 kts 194°
2026-05-06 16:26 52.42171 10.31027 30258 ft 437 kts 194°
2026-05-06 16:26 52.39200 10.29927 30497 ft 438 kts 194°
2026-05-06 16:27 52.36221 10.28833 30767 ft 438 kts 194°
2026-05-06 16:27 52.33249 10.27746 31078 ft 437 kts 194°
2026-05-06 16:27 52.30284 10.26664 31373 ft 435 kts 194°
2026-05-06 16:27 52.27334 10.25587 31703 ft 434 kts 194°
2026-05-06 16:28 52.24395 10.24514 32017 ft 432 kts 194°
2026-05-06 16:28 52.21465 10.23445 32312 ft 431 kts 194°
2026-05-06 16:28 52.18544 10.22376 32609 ft 430 kts 194°
2026-05-06 16:28 52.15629 10.21316 32901 ft 429 kts 194°
2026-05-06 16:29 52.12726 10.20268 33183 ft 428 kts 194°
2026-05-06 16:29 52.09823 10.19220 33473 ft 427 kts 194°
2026-05-06 16:29 52.06927 10.18171 33729 ft 426 kts 194°
2026-05-06 16:29 52.04040 10.17126 33803 ft 422 kts 194°
2026-05-06 16:30 51.99307 10.15421 33807 ft 417 kts 194°
2026-05-06 16:30 51.92731 10.13046 33808 ft 416 kts 194°
2026-05-06 16:31 51.87073 10.11016 33805 ft 416 kts 194°
2026-05-06 16:31 51.81424 10.09010 33800 ft 415 kts 194°
2026-05-06 16:32 51.75782 10.07000 33806 ft 415 kts 194°
2026-05-06 16:32 51.70141 10.04979 33800 ft 415 kts 194°
2026-05-06 16:33 51.64493 10.02976 33809 ft 416 kts 194°
2026-05-06 16:34 51.56018 9.99968 33797 ft 416 kts 194°
2026-05-06 16:34 51.50358 9.97970 33804 ft 417 kts 194°
2026-05-06 16:35 51.44700 9.95981 33810 ft 417 kts 194°
2026-05-06 16:35 51.39036 9.93993 33807 ft 416 kts 194°
2026-05-06 16:36 51.33376 9.91997 33799 ft 417 kts 194°
2026-05-06 16:36 51.27750 9.90025 33803 ft 417 kts 194°
2026-05-06 16:37 51.22066 9.88215 33804 ft 418 kts 188°
2026-05-06 16:37 51.16234 9.87688 33801 ft 419 kts 185°
2026-05-06 16:38 51.10412 9.87177 33809 ft 418 kts 185°
2026-05-06 16:38 51.04614 9.86656 33813 ft 417 kts 185°
2026-05-06 16:39 50.98823 9.86147 33805 ft 416 kts 185°
2026-05-06 16:39 50.93040 9.85651 33804 ft 416 kts 185°
2026-05-06 16:39 50.90160 9.85404 33642 ft 412 kts 187°
2026-05-06 16:40 50.87302 9.85155 33768 ft 411 kts 187°
2026-05-06 16:40 50.81586 9.84653 33789 ft 411 kts 187°
2026-05-06 16:41 50.75879 9.84163 33793 ft 410 kts 187°
2026-05-06 16:41 50.70179 9.83676 33798 ft 410 kts 187°
2026-05-06 16:42 50.64484 9.83183 33776 ft 410 kts 187°
2026-05-06 16:42 50.58796 9.82687 33784 ft 410 kts 187°
2026-05-06 16:43 50.53100 9.82206 33777 ft 410 kts 187°
2026-05-06 16:43 50.47406 9.81725 33783 ft 410 kts 187°
2026-05-06 16:44 50.41755 9.81238 33784 ft 409 kts 187°
2026-05-06 16:44 50.36084 9.80759 33799 ft 408 kts 187°
2026-05-06 16:44 50.33258 9.80392 33641 ft 407 kts 192°
2026-05-06 16:45 50.30437 9.79712 32530 ft 414 kts 193°
2026-05-06 16:45 50.27588 9.78932 31787 ft 414 kts 193°
2026-05-06 16:45 50.24777 9.78120 31352 ft 407 kts 193°
2026-05-06 16:45 50.22017 9.77311 30884 ft 402 kts 193°
2026-05-06 16:46 50.19286 9.76515 30416 ft 397 kts 193°
2026-05-06 16:46 50.16590 9.75745 29968 ft 391 kts 192°
2026-05-06 16:46 50.13926 9.75001 29476 ft 386 kts 192°
2026-05-06 16:46 50.11302 9.74285 29065 ft 379 kts 191°
2026-05-06 16:47 50.08729 9.73663 28786 ft 370 kts 190°
2026-05-06 16:47 50.06212 9.73117 28507 ft 361 kts 189°
2026-05-06 16:47 50.03740 9.72612 28233 ft 357 kts 189°
2026-05-06 16:47 50.01241 9.72104 27957 ft 371 kts 189°
2026-05-06 16:48 49.99514 9.71749 27776 ft 384 kts 189°
2026-05-06 16:48 49.96805 9.71183 27512 ft 401 kts 189°
2026-05-06 16:48 49.93987 9.70584 27247 ft 418 kts 189°
2026-05-06 16:48 49.91056 9.69956 26989 ft 431 kts 189°
2026-05-06 16:49 49.88065 9.69316 26662 ft 435 kts 189°
2026-05-06 16:49 49.85070 9.68674 26062 ft 433 kts 189°
2026-05-06 16:49 49.82085 9.68035 25486 ft 438 kts 189°
2026-05-06 16:49 49.79017 9.67380 24874 ft 449 kts 189°
2026-05-06 16:50 49.75905 9.66719 24252 ft 454 kts 189°
2026-05-06 16:50 49.72775 9.66061 23643 ft 454 kts 189°
2026-05-06 16:50 49.69653 9.65406 22968 ft 452 kts 189°
2026-05-06 16:50 49.66529 9.64749 22352 ft 453 kts 189°
2026-05-06 16:51 49.63413 9.64091 21740 ft 451 kts 188°
2026-05-06 16:51 49.60319 9.63437 21126 ft 447 kts 188°
2026-05-06 16:51 49.57258 9.62788 20521 ft 443 kts 188°
2026-05-06 16:51 49.54216 9.62148 19923 ft 440 kts 188°
2026-05-06 16:52 49.51198 9.61514 19323 ft 436 kts 188°
2026-05-06 16:52 49.48204 9.60885 18728 ft 432 kts 188°
2026-05-06 16:52 49.45238 9.60259 18152 ft 428 kts 188°
2026-05-06 16:52 49.42298 9.59638 17516 ft 425 kts 188°
2026-05-06 16:53 49.39378 9.59024 16938 ft 422 kts 188°
2026-05-06 16:53 49.36486 9.58419 16382 ft 419 kts 188°
2026-05-06 16:53 49.33606 9.57820 15799 ft 416 kts 188°
2026-05-06 16:53 49.30744 9.57230 15235 ft 413 kts 188°
2026-05-06 16:54 49.27936 9.56649 14765 ft 400 kts 188°
2026-05-06 16:54 49.25234 9.56087 14451 ft 384 kts 188°
2026-05-06 16:54 49.22637 9.55547 14140 ft 370 kts 188°
2026-05-06 16:54 49.20131 9.55026 13812 ft 357 kts 188°
2026-05-06 16:55 49.17704 9.54522 13437 ft 347 kts 188°
2026-05-06 16:55 49.15345 9.54030 13039 ft 338 kts 188°
2026-05-06 16:55 49.13079 9.53559 12650 ft 329 kts 188°
2026-05-06 16:55 49.10809 9.53087 12257 ft 321 kts 188°
2026-05-06 16:56 49.08620 9.52633 11868 ft 314 kts 188°
2026-05-06 16:56 49.06505 9.52194 11500 ft 308 kts 188°
2026-05-06 16:56 49.04400 9.51757 11126 ft 303 kts 187°
2026-05-06 16:56 49.02329 9.51332 10759 ft 298 kts 187°
2026-05-06 16:57 49.00288 9.50913 10393 ft 294 kts 187°
2026-05-06 16:57 48.98276 9.50502 10034 ft 291 kts 187°
2026-05-06 16:57 48.96282 9.50094 9674 ft 288 kts 187°
2026-05-06 16:57 48.94302 9.49689 9240 ft 286 kts 187°
2026-05-06 16:58 48.92357 9.49291 8797 ft 278 kts 187°
2026-05-06 16:58 48.90466 9.48902 8363 ft 270 kts 187°
2026-05-06 16:58 48.88623 9.48525 7931 ft 264 kts 187°
2026-05-06 16:58 48.86821 9.48156 7500 ft 258 kts 187°
2026-05-06 16:59 48.85056 9.47794 7082 ft 253 kts 187°
2026-05-06 16:59 48.83325 9.47437 6668 ft 249 kts 187°
2026-05-06 16:59 48.81642 9.47090 6276 ft 240 kts 187°
2026-05-06 16:59 48.80009 9.46755 5759 ft 233 kts 187°
2026-05-06 17:00 48.78433 9.46437 5250 ft 225 kts 187°
2026-05-06 17:00 48.76907 9.46129 4758 ft 218 kts 187°
2026-05-06 17:00 48.75444 9.45770 4253 ft 209 kts 195°
2026-05-06 17:00 48.74180 9.44840 3938 ft 195 kts 215°
2026-05-06 17:01 48.73249 9.43433 3730 ft 186 kts 233°
2026-05-06 17:01 48.72668 9.41731 3516 ft 180 kts 251°
2026-05-06 17:01 48.72328 9.39939 3288 ft 175 kts 254°
2026-05-06 17:01 48.72000 9.38190 3062 ft 171 kts 254°
2026-05-06 17:02 48.71681 9.36488 2856 ft 163 kts 255°
2026-05-06 17:02 48.71380 9.34890 2630 ft 154 kts 255°
2026-05-06 17:02 48.71092 9.33357 2421 ft 150 kts 255°
2026-05-06 17:02 48.70807 9.31843 2228 ft 149 kts 255°
2026-05-06 17:03 48.70525 9.30346 2038 ft 147 kts 255°
2026-05-06 17:03 48.70244 9.28850 1861 ft 148 kts 255°
2026-05-06 17:03 48.69964 9.27359 1668 ft 146 kts 253°
2026-05-06 17:03 48.69690 9.25906 1434 ft 143 kts 253°
2026-05-06 17:04 48.69418 9.24477 1262 ft 140 kts 254°
2026-05-06 17:04 48.69164 9.23127 1215 ft 119 kts 254°
2026-05-06 17:04 48.68984 9.22178 1233 ft 69 kts 254°
2026-05-06 17:04 48.68871 9.21580 1255 ft 49 kts 254°
2026-05-06 17:05 48.68816 9.21203 1263 ft 27 kts 269°
2026-05-06 17:05 48.68822 9.21077 1266 ft 9 kts 278°
2026-05-06 17:05 48.68834 9.20992 1268 ft 7 kts 284°
2026-05-06 17:05 48.68842 9.20943 1270 ft 3 kts 284°
2026-05-06 17:06 48.68845 9.20925 1267 ft 0 kts 284°
2026-05-06 17:06 48.68846 9.20920 1267 ft 2 kts 284°
2026-05-06 17:06 48.68852 9.20884 1269 ft 5 kts 284°
2026-05-06 17:06 48.68864 9.20814 1272 ft 8 kts 284°
2026-05-06 17:07 48.68877 9.20707 1275 ft 12 kts 269°
2026-05-06 17:07 48.68853 9.20560 1278 ft 16 kts 254°
2026-05-06 17:07 48.68824 9.20407 1282 ft 15 kts 254°
2026-05-06 17:07 48.68797 9.20264 1287 ft 14 kts 254°
2026-05-06 17:08 48.68771 9.20128 1288 ft 13 kts 254°
2026-05-06 17:08 48.68760 9.19997 1292 ft 12 kts 276°
2026-05-06 17:08 48.68761 9.19876 1296 ft 11 kts 261°
2026-05-06 17:08 48.68741 9.19763 1299 ft 12 kts 254°
2026-05-06 17:09 48.68711 9.19606 1303 ft 18 kts 254°
2026-05-06 17:09 48.68679 9.19436 1308 ft 16 kts 254°
2026-05-06 17:09 48.68650 9.19282 1312 ft 15 kts 254°
2026-05-06 17:09 48.68675 9.19165 1317 ft 12 kts 334°
2026-05-06 17:10 48.68751 9.19146 1318 ft 11 kts 24°
2026-05-06 17:10 48.68784 9.19260 1315 ft 14 kts 74°
2026-05-06 17:10 48.68820 9.19311 1315 ft 6 kts 354°
2026-05-06 17:10 48.68854 9.19295 1315 ft 5 kts 343°
2026-05-06 17:11 48.68866 9.19290 1316 ft 0 kts 344°